DW8305 Weather Reports


time (UTC)temp
C
wind
direction
speed
KPH
gust
KPH
rain 1hr
cm
rain 24hr
cm
rain mn
cm
humidity
%
barometer
mb
20260901020215 16 248 4.8 9.7 0.00 0.43 0.03 94 1016.2
20260901015255 16 248 4.8 9.7 0.00 0.43 0.03 94 1016.1
20260901014216 16 248 4.8 6.4 0.00 0.43 0.03 94 1016.0
20260901013215 16 270 9.7 16.1 0.00 0.43 0.03 94 1015.9
20260901012215 16 203 3.2 6.4 0.00 0.43 0.03 94 1015.9
20260901011216 16 248 8.0 12.9 0.00 0.43 0.03 94 1015.8
20260901010215 16 270 11.3 19.3 0.00 0.43 0.03 95 1015.8
20260901005216 15 270 9.7 12.9 0.00 0.43 0.03 95 1015.8
20260901004215 15 270 6.4 11.3 0.00 0.43 0.03 95 1015.7
20260901003216 15 270 6.4 12.9 0.00 0.43 0.03 95 1015.6
20260901002216 15 270 6.4 11.3 0.00 0.43 0.03 95 1015.5
20260901001215 16 270 8.0 11.3 0.00 0.43 0.03 94 1015.4
20260901000218 16 270 9.7 16.1 0.00 0.43 0.03 95 1015.4
20260831235215 15 248 6.4 12.9 0.00 0.43 0.03 95 1015.4
20260831234215 15 270 6.4 9.7 0.00 0.43 0.03 95 1015.3
20260831233215 15 270 6.4 14.5 0.00 0.43 0.03 95 1015.2
20260831232215 15 270 9.7 14.5 0.00 0.43 0.03 95 1015.1
20260831231235 15 248 6.4 12.9 0.00 0.43 0.03 95 1015.1
20260831230216 15 270 9.7 14.5 0.00 0.43 0.03 95 1015.0
20260831225215 15 248 8.0 14.5 0.03 0.43 0.03 95 1014.9
20260831224215 15 270 12.9 22.5 0.03 0.43 0.03 95 1014.6
20260831223215 15 270 8.0 12.9 0.03 0.43 0.03 95 1014.6
20260831222215 15 270 11.3 19.3 0.03 0.43 0.03 95 1014.6
20260831221215 15 270 9.7 14.5 0.03 0.43 0.03 95 1014.5
20260831220215 15 270 12.9 20.9 0.00 0.43 0.00 95 1014.4
20260831215216 15 270 6.4 11.3 0.00 0.43 0.43 95 1014.3
20260831214216 15 248 6.4 11.3 0.10 0.43 0.43 95 1014.3
20260831213216 15 270 12.9 20.9 0.15 0.43 0.43 96 1014.3
20260831212216 15 270 6.4 11.3 0.15 0.43 0.43 96 1014.2
20260831211216 15 270 6.4 11.3 0.15 0.43 0.43 96 1014.1
20260831210216 15 248 6.4 14.5 0.15 0.43 0.43 97 1014.1
20260831205216 15 225 4.8 11.3 0.15 0.43 0.43 97 1014.0
20260831204236 15 248 9.7 12.9 0.05 0.30 0.30 98 1014.0
20260831203216 15 248 6.4 14.5 0.00 0.25 0.25 98 1013.6
20260831202216 15 225 6.4 14.5 0.00 0.25 0.25 98 1013.6
20260831201216 15 225 4.8 8.0 0.00 0.25 0.25 98 1013.5
20260831200216 15 225 6.4 11.3 0.00 0.25 0.25 98 1013.5
20260831195216 15 248 6.4 11.3 0.00 0.25 0.25 98 1013.3
20260831194216 15 225 8.0 11.3 0.00 0.25 0.25 98 1013.2
20260831193216 15 225 6.4 9.7 0.00 0.25 0.25 98 1013.2
20260831192216 15 225 4.8 6.4 0.00 0.25 0.25 98 1013.2
20260831191216 15 225 3.2 8.0 0.00 0.25 0.25 98 1013.2
20260831190216 15 248 8.0 14.5 0.00 0.25 0.25 98 1013.1
20260831185216 15 225 6.4 8.0 0.00 0.25 0.25 98 1012.9
20260831184216 15 248 3.2 4.8 0.00 0.25 0.25 97 1012.7
20260831183236 15 225 1.6 3.2 0.00 0.25 0.25 97 1012.6
20260831182216 15 270 1.6 1.6 0.10 0.25 0.25 97 1012.5
20260831181236 15 248 3.2 4.8 0.13 0.25 0.25 97 1012.4
20260831180216 15 270 3.2 3.2 0.13 0.25 0.25 96 1012.3
20260831175216 15 0.0 3.2 0.13 0.25 0.25 96 1012.1
20260831174236 15 270 4.8 6.4 0.13 0.25 0.25 95 1012.0
20260831173216 16 270 3.2 4.8 0.13 0.25 0.25 92 1011.8
20260831172216 17 270 8.0 11.3 0.00 0.15 0.15 79 1012.0
20260831171216 17 293 9.7 16.1 0.00 0.15 0.15 74 1011.9
20260831170236 18 315 6.4 8.0 0.00 0.15 0.15 72 1011.8
20260831165216 18 293 11.3 17.7 0.00 0.15 0.15 76 1011.6
20260831164236 19 270 9.7 17.7 0.00 0.15 0.15 76 1011.6
20260831163216 19 270 9.7 14.5 0.00 0.15 0.15 75 1011.5
20260831162216 19 248 9.7 19.3 0.00 0.15 0.15 74 1011.4
20260831161216 19 270 8.0 11.3 0.00 0.15 0.15 74 1011.3
20260831160216 20 225 9.7 14.5 0.00 0.15 0.15 73 1011.1
20260831155216 20 225 8.0 17.7 0.00 0.15 0.15 74 1010.9
20260831154216 20 248 12.9 17.7 0.00 0.15 0.15 73 1010.7
20260831153216 20 225 9.7 12.9 0.00 0.15 0.15 71 1010.8
20260831152216 20 270 8.0 16.1 0.00 0.15 0.15 72 1010.7
20260831151216 20 270 8.0 16.1 0.00 0.15 0.15 70 1010.6
20260831150216 20 225 11.3 17.7 0.00 0.15 0.15 69 1010.6
20260831145216 20 248 6.4 11.3 0.05 0.15 0.15 69 1010.7
20260831144216 21 270 9.7 19.3 0.13 0.15 0.15 72 1010.6
20260831143216 21 270 11.3 17.7 0.13 0.15 0.15 74 1010.6
20260831142216 20 293 3.2 6.4 0.13 0.15 0.15 81 1010.6
20260831141216 18 270 4.8 8.0 0.13 0.15 0.15 85 1010.6
20260831140216 18 293 4.8 9.7 0.13 0.15 0.15 83 1010.6
20260831135216 21 270 11.3 19.3 0.05 0.05 0.05 71 1010.6
20260831134216 21 270 8.0 12.9 0.00 0.03 0.03 67 1010.1
20260831133216 21 270 9.7 11.3 0.00 0.03 0.03 70 1010.0
20260831132216 21 270 6.4 9.7 0.00 0.03 0.03 76 1010.1
20260831131216 21 270 6.4 9.7 0.00 0.03 0.03 75 1010.0
20260831130216 21 270 4.8 6.4 0.00 0.03 0.03 78 1009.9
20260831125216 20 225 6.4 9.7 0.00 0.03 0.03 80 1010.0
20260831124216 20 248 3.2 6.4 0.00 0.03 0.03 82 1010.0
20260831123216 19 0.0 1.6 0.00 0.03 0.03 84 1010.1
20260831122216 18 270 3.2 8.0 0.03 0.03 0.03 82 1010.2
20260831121216 18 270 1.6 4.8 0.03 0.03 0.03 79 1010.2
20260831120216 18 270 6.4 11.3 0.03 0.03 0.03 74 1010.4
20260831115216 20 270 4.8 8.0 0.03 0.03 0.03 79 1010.2
20260831114216 20 270 8.0 11.3 0.03 0.03 0.03 74 1010.2
20260831113216 21 248 6.4 11.3 0.03 0.03 0.03 69 1010.2
20260831112256 22 225 16.1 29.0 0.00 0.00 0.00 63 1010.3
20260831111216 22 270 16.1 24.1 0.00 0.00 0.00 63 1010.4
20260831110236 22 270 8.0 12.9 0.00 0.00 0.00 63 1010.5
20260831105216 22 225 17.7 27.4 0.00 0.00 0.00 63 1010.6
20260831104216 22 225 11.3 19.3 0.00 0.00 0.00 66 1010.7
20260831103216 22 225 19.3 25.7 0.00 0.00 0.00 65 1011.0
20260831102216 22 248 17.7 29.0 0.00 0.00 0.00 62 1010.8
20260831101216 22 270 16.1 24.1 0.00 0.00 0.00 62 1010.8
20260831100216 22 293 8.0 16.1 0.00 0.00 0.00 65 1010.7
20260831095216 21 248 12.9 17.7 0.00 0.00 0.00 67 1010.9
20260831094216 22 270 12.9 32.2 0.00 0.00 0.00 65 1010.9
20260831093216 21 225 14.5 25.7 0.00 0.00 0.00 67 1010.9
20260831092236 21 270 11.3 17.7 0.00 0.00 0.00 70 1010.8
20260831091236 21 270 14.5 24.1 0.00 0.00 0.00 71 1010.9
20260831090216 21 270 9.7 17.7 0.00 0.00 0.00 72 1010.9
20260831085236 20 225 8.0 14.5 0.00 0.00 0.00 73 1011.1
20260831084216 20 248 12.9 22.5 0.00 0.00 0.00 72 1011.1
20260831083216 21 225 12.9 19.3 0.00 0.00 0.00 71 1011.1
20260831082216 21 293 6.4 11.3 0.00 0.00 0.00 74 1011.2
20260831081216 20 270 6.4 12.9 0.00 0.00 0.00 75 1011.1
20260831080216 20 270 11.3 20.9 0.00 0.00 0.00 76 1010.9
20260831075216 20 225 12.9 19.3 0.00 0.00 0.00 76 1011.0
20260831074216 20 225 17.7 25.7 0.00 0.00 0.00 77 1011.0
20260831073236 19 225 4.8 11.3 0.00 0.00 0.00 78 1011.1
20260831072216 19 270 6.4 12.9 0.00 0.00 0.00 78 1011.1
20260831071216 18 225 11.3 17.7 0.00 0.00 0.00 79 1011.1
20260831070236 18 225 4.8 12.9 0.00 0.00 0.00 80 1011.0
20260831065256 18 225 8.0 11.3 0.00 0.00 0.00 80 1010.9
20260831064216 18 225 8.0 11.3 0.00 0.00 0.00 81 1010.8
20260831063216 18 203 3.2 8.0 0.00 0.00 0.00 81 1010.7
20260831062216 18 225 3.2 8.0 0.00 0.00 0.00 81 1010.7
20260831061216 17 203 6.4 9.7 0.00 0.00 0.00 81 1010.7
20260831060216 17 225 3.2 4.8 0.00 0.00 0.00 83 1010.7
20260831055236 17 203 3.2 4.8 0.00 0.00 0.00 84 1010.6
20260831054216 17 158 4.8 8.0 0.00 0.00 0.00 85 1010.6
20260831053216 16 203 4.8 9.7 0.00 0.00 0.00 87 1010.4
20260831052216 16 225 1.6 3.2 0.00 0.00 0.00 89 1010.4
20260831051216 16 158 3.2 8.0 0.00 0.00 0.00 90 1010.3
20260831050216 15 0.0 1.6 0.00 0.00 0.00 91 1010.3
20260831045236 15 225 1.6 3.2 0.00 0.00 0.00 91 1010.4
20260831044216 15 203 1.6 3.2 0.00 0.00 0.00 92 1010.3
20260831043236 15 135 1.6 3.2 0.00 0.00 0.00 92 1010.3
20260831042216 15 0.0 0.0 0.00 0.00 0.00 91 1010.2
20260831041216 15 113 1.6 3.2 0.00 0.00 0.00 91 1010.2
20260831040216 15 0.0 1.6 0.00 0.00 0.00 91 1010.2
20260831035216 15 0.0 1.6 0.00 0.00 0.00 91 1010.5
20260831034236 15 0.0 0.0 0.00 0.00 0.00 91 1010.5
20260831033216 15 113 3.2 4.8 0.00 0.00 0.00 91 1010.4
20260831032236 15 0.0 0.0 0.00 0.00 0.00 91 1010.6
20260831031216 15 0.0 0.0 0.00 0.00 0.00 91 1010.5
20260831030216 15 0.0 1.6 0.00 0.00 0.00 92 1010.6
20260831025216 15 0.0 1.6 0.00 0.03 0.00 92 1010.8
20260831024216 15 0.0 1.6 0.00 0.03 0.00 92 1010.8
20260831023216 15 0.0 1.6 0.00 0.03 0.00 92 1011.1
20260831022216 15 0.0 1.6 0.00 0.03 0.00 92 1011.2
20260831021215 15 135 1.6 1.6 0.00 0.03 0.00 92 1011.2